{"data":{"norad_id":67748,"intl_designator":"2026-027C","name":"2026-027C","alt_names":[],"object_type":"PAYLOAD","status":"ACTIVE","operator":null,"country":"PRC","launch_date":"2026-02-12","launch_site_code":"SCSLA","launch_vehicle":null,"mission":null,"orbit_class":"UNKNOWN","rcs_meters":null,"size_class":null,"mass_kg":null,"dimensions":null,"purposes":[],"wikipedia_slug":null,"has_3d_model":false,"image_url":null,"decayed_at":null,"tle_current":{"epoch":"2026-09-20T07:45:11.090592Z","epoch_age_seconds":105169,"freshness":"FRESH","line1":"1 67748U 26027C   26263.32304503  .00003031  00000+0  14576-3 0  9990","line2":"2 67748  97.5187  30.9759 0009171 244.8493 115.1791 15.19539917 33401","mean_motion":15.19539917,"eccentricity":0.0009171,"inclination_deg":97.5187,"raan_deg":30.9759,"arg_perigee_deg":244.8493,"mean_anomaly_deg":115.1791,"bstar":0.00014576,"rev_number":3340,"period_min":94.76552632082,"perigee_km":500.91551734811,"apogee_km":513.54465766001,"semimajor_km":6885.3670875041,"source":"CELESTRAK","updated_at":"2026-09-21T09:00:16.824642Z"}}}